Lid_Strength_Index
3 3 3 3 3 3 3 3 3 3 2 2 2 3 3 3 3 8 12 9 5 1 2 7 3 4 3 5 3 4 9 11 11 10 8 5 7 6 5 6 6 5 4 4 2
3 3 3 3 3 3 3 3 3 3 3 3 3 3 3 3 6 8 6 3 2 1 6 9 5 6 6 5 5 6 9 10 8 8 7 6 6 6 6 6 6 5 4 3 2
4 3 3 3 3 3 3 3 3 3 3 3 3 3 3 3 10 7 1 1 0 2 4 5 6 5 7 6 6 6 9 7 7 7 6 6 6 5 7 8 6 6 5 4 3
3 3 3 3 3 3 4 4 3 3 3 3 3 3 3 6 14 6 2 2 2 3 4 7 8 9 9 9 7 9 7 6 6 6 6 6 5 5 5 6 5 4 4 4 3
3 3 3 3 3 3 3 3 3 3 3 3 3 4 6 10 11 7 3 3 4 6 7 5 9 9 10 9 8 8 8 6 5 5 6 5 6 6 6 4 3 3 3 3 3
3 3 3 3 3 3 3 3 3 3 3 2 3 3 7 12 7 6 5 5 6 6 7 7 6 7 9 10 9 8 7 7 6 6 6 7 6 6 5 4 4 4 4 4 4
3 3 3 3 3 3 3 2 2 2 1 2 2 4 8 9 5 4 4 5 6 6 8 7 7 7 7 9 7 8 10 9 8 6 7 5 8 7 5 4 4 5 5 4 4
3 3 3 3 3 3 2 2 2 2 1 2 2 5 9 4 3 4 4 4 4 5 6 6 8 9 7 6 8 9 10 13 9 9 9 7 11 7 5 5 5 4 4 5 4
3 3 4 4 3 3 3 2 2 2 1 2 5 6 9 4 6 5 4 6 5 5 6 6 7 10 8 10 11 10 12 12 11 9 9 9 10 7 6 6 6 5 4 4 4
4 4 4 4 3 3 3 3 3 2 3 3 4 8 8 9 7 6 5 5 7 8 8 8 8 10 10 11 15 13 12 11 11 10 10 10 10 8 7 7 7 6 5 5 5
3 3 4 4 4 3 4 6 7 8 8 10 10 9 9 7 6 7 5 7 8 9 11 10 13 14 12 10 10 10 11 11 9 7 9 10 10 9 7 7 7 6 6 5 5
3 3 4 4 4 4 5 7 7 7 10 8 8 8 7 7 9 7 6 9 10 11 11 12 14 11 10 10 10 10 12 12 10 9 9 9 9 8 8 8 7 7 7 6 6
3 3 3 4 3 5 6 6 5 6 10 9 8 9 8 7 8 8 6 7 8 9 9 11 11 9 11 11 12 11 12 12 11 10 9 10 11 11 9 8 8 7 7 6 6
3 3 3 4 6 6 7 5 5 6 13 12 10 8 7 6 8 4 3 5 7 9 8 9 7 9 10 11 10 13 10 10 11 12 13 10 14 11 10 9 9 8 8 7 6
3 3 3 4 6 7 6 5 6 7 19 11 9 5 5 8 6 5 2 5 8 8 9 10 9 10 10 9 8 11 9 10 10 11 11 12 14 12 10 11 10 8 7 6 5
3 3 4 5 6 5 5 5 7 13 19 12 9 9 8 6 6 5 5 4 5 8 8 8 6 8 8 7 7 7 9 10 10 11 15 13 13 13 11 10 8 7 6 6 5
4 4 4 5 7 5 5 7 13 16 10 12 11 9 8 8 7 7 8 9 11 14 14 9 9 7 7 9 8 8 10 14 16 16 18 12 13 13 9 8 8 8 7 6 5
4 5 4 4 4 4 7 10 16 13 12 9 10 8 10 8 8 8 9 10 9 11 14 15 16 9 7 8 10 9 10 13 18 17 17 13 15 13 8 7 7 7 6 6 5
6 5 5 4 4 5 8 13 14 12 10 10 9 11 11 9 9 9 9 10 9 9 14 14 15 8 8 7 8 10 12 8 12 12 15 14 13 10 9 8 7 7 7 6 5
7 7 5 4 4 6 10 13 11 9 8 9 12 10 13 11 11 10 10 9 9 7 7 11 15 10 9 7 7 8 7 12 12 16 18 15 15 13 11 9 8 8 7 6 4
7 7 5 4 4 8 12 12 10 8 7 10 10 11 11 11 11 11 11 8 7 8 7 9 12 12 9 11 11 9 11 10 10 11 15 16 14 9 9 8 9 8 7 6 4
8 9 5 5 8 11 12 11 8 8 7 8 8 9 11 10 11 11 11 9 6 7 10 8 11 14 12 8 7 9 10 11 13 14 13 14 14 8 8 8 7 7 7 6 4
11 10 5 6 12 11 11 11 9 9 8 8 9 8 8 10 13 11 9 7 6 7 9 8 11 15 12 11 9 10 10 9 10 10 13 15 15 8 8 8 7 7 7 6 5
10 12 10 9 9 11 13 12 11 8 8 8 9 7 9 10 9 11 11 8 7 7 6 7 11 13 16 13 11 13 11 10 11 14 13 14 13 10 9 9 8 7 6 5 5
12 13 11 13 12 11 11 12 12 11 8 7 9 9 11 13 11 12 10 9 8 7 7 8 13 11 11 10 10 11 11 11 12 11 14 13 13 10 9 8 8 7 6 6 6
12 12 11 12 11 11 11 12 12 10 10 10 10 9 9 11 11 12 11 10 11 9 10 8 13 11 13 10 10 12 11 10 11 11 11 12 13 9 8 8 8 7 7 6 6
11 10 11 12 11 11 11 11 12 10 9 8 8 9 10 9 8 8 7 7 8 10 11 11 12 13 15 11 12 14 11 11 10 9 10 13 10 9 9 9 8 6 7 7 6